Hamlet, NC

9:58 PM EDT on August 30, 2016 (GMT -0400)
Rockingham

Weather History for KRCZ - October, 2012

Change the Weather History Date:

Wednesday, October 24, 2012

  Actual Average (KHFF) Record (KHFF)
Temperature  
Mean Temperature 64 °F -  
Max Temperature 93 °F 68 °F 87 °F (2001)
Min Temperature 47 °F 47 °F 30 °F (2006)
Degree Days  
Heating Degree Days 2    
Growing Degree Days 14 (Base 50)    
Moisture  
Dew Point 54 °F    
Average Humidity 72    
Maximum Humidity 99    
Minimum Humidity 35    
Precipitation  
Precipitation 0.00 in - - ()
Sea Level Pressure  
Sea Level Pressure 30.15 in    
Wind  
Wind Speed 1 mph (SSW)    
Max Wind Speed 7 mph    
Max Gust Speed -    
Visibility 10 miles    
Events      
Averages and records for this station are not official NWS values.
T = Trace of Precipitation, MM = Missing Value Source: NWS Daily Summary

Daily Weather History Graph

Daily Weather History Graph

Search for Another Location

Airport or City:

Trip Planner

Search our weather history database for the weather conditions in past years. The results will help you decide how hot, cold, wet, or windy it might be!

Date:

Astronomy

Oct. 24, 2012 Rise Set
Actual Time 7:33 AM EDT 6:32 PM EDT
Civil Twilight 7:07 AM EDT 6:58 PM EDT
Nautical Twilight 6:37 AM EDT 7:28 PM EDT
Astronomical Twilight 6:08 AM EDT 7:57 PM EDT
Moon 3:38 PM EDT (10/24) 2:37 AM EDT (10/24)
Length of Visible Light 11h 51m
Length of Day
10h 59m
Waxing Gibbous, 76% of the Moon is Illuminated
Oct 24
Waxing Gibbous
Oct 29
Full
Nov 6
Last Quarter
Nov 13
New
Nov 20
First Quarter

Hourly Weather History & Observations

Time (EDT) Temp. Dew Point Humidity Pressure Visibility Wind Dir Wind Speed Gust Speed Precip Events Conditions
12:15 AM 59.4 °F 51.8 °F 76% 30.16 in 10.0 mi Calm Calm - N/A   Clear
12:35 AM 59.0 °F 52.3 °F 79% 30.16 in 10.0 mi Calm Calm - N/A   Clear
12:55 AM 58.5 °F 52.7 °F 81% 30.18 in 10.0 mi Calm Calm - N/A   Clear
1:15 AM 58.1 °F 53.1 °F 83% 30.18 in 10.0 mi South 3.5 mph - N/A   Clear
1:35 AM 57.9 °F 53.2 °F 84% 30.17 in 10.0 mi Calm Calm - N/A   Clear
1:55 AM 57.2 °F 53.2 °F 87% 30.17 in 10.0 mi Calm Calm - N/A   Clear
2:15 AM 56.3 °F 53.2 °F 89% 30.17 in 10.0 mi Calm Calm - N/A   Clear
2:35 AM 55.0 °F 52.2 °F 90% 30.17 in 10.0 mi Calm Calm - N/A   Clear
2:55 AM 53.6 °F 52.0 °F 94% 30.17 in 10.0 mi Calm Calm - N/A   Clear
3:15 AM 52.5 °F 51.3 °F 95% 30.16 in 10.0 mi Calm Calm - N/A   Clear
3:35 AM 51.3 °F 50.2 °F 96% 30.16 in 10.0 mi Calm Calm - N/A   Clear
3:55 AM 52.2 °F 51.3 °F 97% 30.15 in 10.0 mi Calm Calm - N/A   Clear
4:15 AM 51.1 °F 50.4 °F 97% 30.16 in 10.0 mi Calm Calm - N/A   Clear
4:35 AM 51.6 °F 51.1 °F 98% 30.16 in 7.0 mi Calm Calm - N/A   Clear
4:55 AM 50.4 °F 50.0 °F 99% 30.16 in 7.0 mi Calm Calm - N/A   Clear
5:15 AM 49.6 °F 49.3 °F 99% 30.17 in 10.0 mi Calm Calm - N/A   Clear
5:35 AM 48.9 °F 48.2 °F 97% 30.17 in 10.0 mi Calm Calm - N/A   Clear
5:55 AM 49.1 °F 48.7 °F 99% 30.17 in 10.0 mi Calm Calm - N/A   Clear
6:15 AM 50.0 °F 49.6 °F 99% 30.18 in 7.0 mi Calm Calm - N/A   Clear
6:35 AM 49.6 °F 49.5 °F 99% 30.19 in 7.0 mi Calm Calm - N/A   Clear
6:55 AM 47.7 °F 47.3 °F 99% 30.19 in 10.0 mi Calm Calm - N/A   Clear
7:15 AM 48.4 °F 48.2 °F 99% 30.19 in 10.0 mi Calm Calm - N/A   Clear
7:35 AM 49.5 °F 49.1 °F 99% 30.19 in 5.0 mi Calm Calm - N/A   Clear
7:55 AM 48.9 °F 48.4 °F 98% 30.20 in 7.0 mi Calm Calm - N/A   Clear
8:15 AM 51.3 °F 50.7 °F 98% 30.20 in 7.0 mi Calm Calm - N/A   Clear
8:35 AM 52.9 °F 52.3 °F 98% 30.21 in 7.0 mi Calm Calm - N/A   Clear
8:55 AM 54.3 °F 53.1 °F 95% 30.21 in 10.0 mi Calm Calm - N/A   Clear
9:15 AM 55.9 °F 54.1 °F 94% 30.22 in 10.0 mi Calm Calm - N/A   Clear
9:35 AM 59.0 °F 55.8 °F 89% 30.22 in 10.0 mi Calm Calm - N/A   Clear
9:55 AM 61.9 °F 57.6 °F 86% 30.22 in 10.0 mi Calm Calm - N/A   Clear
10:15 AM 64.8 °F 59.2 °F 82% 30.22 in 10.0 mi West 4.6 mph - N/A   Clear
10:35 AM 66.9 °F 59.7 °F 78% 30.21 in 10.0 mi Calm Calm - N/A   Clear
10:55 AM 69.3 °F 60.8 °F 74% 30.20 in 10.0 mi WSW 4.6 mph - N/A   Clear
11:15 AM 70.7 °F 61.0 °F 71% 30.19 in 10.0 mi WNW 5.8 mph - N/A   Clear
11:35 AM 71.6 °F 60.8 °F 69% 30.19 in 10.0 mi SW 3.5 mph - N/A   Clear
11:55 AM 72.9 °F 60.4 °F 65% 30.18 in 10.0 mi West 5.8 mph - N/A   Clear
12:15 PM 73.8 °F 59.0 °F 60% 30.18 in 10.0 mi Calm Calm - N/A   Clear
12:35 PM 74.7 °F 58.1 °F 56% 30.17 in 10.0 mi WSW 6.9 mph - N/A   Clear
12:55 PM 75.6 °F 56.8 °F 52% 30.16 in 10.0 mi Calm Calm - N/A   Clear
1:15 PM 76.1 °F 55.9 °F 50% 30.15 in 10.0 mi Calm Calm - N/A   Clear
1:35 PM 77.0 °F 55.8 °F 48% 30.14 in 10.0 mi Calm Calm - N/A   Clear
1:55 PM 77.5 °F 55.0 °F 46% 30.13 in 10.0 mi West 4.6 mph - N/A   Clear
2:15 PM 78.4 °F 53.8 °F 42% 30.12 in 10.0 mi Calm Calm - N/A   Clear
2:35 PM 78.8 °F 51.1 °F 38% 30.11 in 10.0 mi West 4.6 mph - N/A   Clear
2:55 PM 79.2 °F 49.3 °F 35% 30.11 in 10.0 mi Calm Calm - N/A   Clear
3:15 PM 79.3 °F 50.4 °F 36% 30.10 in 10.0 mi Calm Calm - N/A   Clear
3:35 PM 79.7 °F 51.4 °F 37% 30.10 in 10.0 mi SE 3.5 mph - N/A   Clear
3:55 PM 79.7 °F 52.2 °F 38% 30.10 in 10.0 mi East 3.5 mph - N/A   Clear
4:15 PM 79.9 °F 52.2 °F 38% 30.10 in 10.0 mi Calm Calm - N/A   Clear
4:35 PM 80.2 °F 52.3 °F 38% 30.10 in 10.0 mi Calm Calm - N/A   Clear
4:55 PM 80.1 °F 52.5 °F 38% 30.10 in 10.0 mi Calm Calm - N/A   Clear
5:15 PM 79.5 °F 53.4 °F 40% 30.10 in 10.0 mi South 3.5 mph - N/A   Clear
5:35 PM 79.0 °F 54.3 °F 42% 30.10 in 10.0 mi SSW 3.5 mph - N/A   Clear
5:55 PM 78.3 °F 55.0 °F 45% 30.10 in 10.0 mi SSW 3.5 mph - N/A   Clear
6:15 PM 77.0 °F 55.4 °F 47% 30.10 in 10.0 mi Calm Calm - N/A   Clear
6:35 PM 75.7 °F 55.4 °F 49% 30.11 in 10.0 mi Calm Calm - N/A   Clear
6:55 PM 73.2 °F 56.3 °F 55% 30.11 in 10.0 mi Calm Calm - N/A   Clear
7:15 PM 70.2 °F 56.5 °F 62% 30.12 in 10.0 mi Calm Calm - N/A   Clear
7:35 PM 69.6 °F 56.3 °F 63% 30.12 in 10.0 mi Calm Calm - N/A   Clear
7:55 PM 68.7 °F 55.6 °F 63% 30.12 in 10.0 mi Calm Calm - N/A   Clear
8:35 PM 66.6 °F 55.8 °F 68% 30.12 in 10.0 mi SSE 3.5 mph - N/A   Clear
8:55 PM 65.1 °F 55.2 °F 70% 30.13 in 10.0 mi SSE 3.5 mph - N/A   Clear
9:15 PM 64.6 °F 54.9 °F 71% 30.13 in 10.0 mi SSE 3.5 mph - N/A   Clear
9:35 PM 65.5 °F 53.8 °F 66% 30.13 in 10.0 mi SSE 4.6 mph - N/A   Clear
9:55 PM 67.1 °F 53.1 °F 61% 30.14 in 10.0 mi SSE 4.6 mph - N/A   Clear
10:15 PM 67.5 °F 54.0 °F 62% 30.14 in 10.0 mi SSE 3.5 mph - N/A   Clear
10:35 PM 66.2 °F 54.5 °F 66% 30.14 in 10.0 mi SSE 3.5 mph - N/A   Clear
10:55 PM 63.9 °F 54.5 °F 72% 30.14 in 10.0 mi Calm Calm - N/A   Clear
11:35 PM 62.8 °F 54.7 °F 75% 30.14 in 10.0 mi Calm Calm - N/A   Clear
11:55 PM 61.9 °F 54.9 °F 78% 30.14 in 10.0 mi Calm Calm - N/A   Clear